TimeCDT,TemperatureF,Dew PointF,Humidity,Sea Level PressureIn,VisibilityMPH,Wind Direction,Wind SpeedMPH,Gust SpeedMPH,PrecipitationIn,Events,Conditions,WindDirDegrees,DateUTC
12:53 AM,64.0,61.0,90,30.02,10.0,South,4.6,-,N/A,,Partly Cloudy,170,2013-04-02 05:53:00
1:53 AM,64.0,61.0,90,30.02,10.0,Calm,Calm,-,N/A,,Scattered Clouds,0,2013-04-02 06:53:00
2:53 AM,63.0,61.0,93,30.01,9.0,East,3.5,-,N/A,,Scattered Clouds,100,2013-04-02 07:53:00
3:53 AM,64.0,61.0,90,29.99,9.0,East,3.5,-,N/A,,Mostly Cloudy,80,2013-04-02 08:53:00
4:53 AM,64.0,61.0,90,29.98,10.0,ENE,6.9,-,0.01,,Clear,70,2013-04-02 09:53:00
5:53 AM,66.0,61.0,84,29.97,10.0,East,6.9,-,N/A,,Mostly Cloudy,100,2013-04-02 10:53:00
6:53 AM,66.0,61.0,84,29.99,10.0,ESE,3.5,-,N/A,,Mostly Cloudy,110,2013-04-02 11:53:00
7:53 AM,66.0,62.1,87,30.00,10.0,SSE,6.9,-,0.00,,Mostly Cloudy,150,2013-04-02 12:53:00
8:53 AM,68.0,63.0,84,30.03,10.0,East,6.9,-,0.00,,Mostly Cloudy,80,2013-04-02 13:53:00
9:53 AM,71.1,64.0,78,30.02,10.0,East,10.4,-,N/A,,Mostly Cloudy,80,2013-04-02 14:53:00
10:12 AM,71.6,64.4,78,30.01,10.0,Variable,5.8,-,N/A,,Mostly Cloudy,0,2013-04-02 15:12:00
10:19 AM,71.6,64.4,78,30.00,10.0,East,9.2,-,N/A,,Mostly Cloudy,80,2013-04-02 15:19:00
10:53 AM,73.0,64.0,73,30.01,10.0,East,12.7,18.4,N/A,,Overcast,100,2013-04-02 15:53:00
11:48 AM,69.8,64.4,83,30.00,10.0,ESE,8.1,-,0.00,Rain,Light Rain,110,2013-04-02 16:48:00
11:53 AM,69.1,64.0,84,30.02,10.0,East,10.4,16.1,0.00,Rain,Light Rain,100,2013-04-02 16:53:00
12:53 PM,70.0,64.0,81,30.02,10.0,East,8.1,-,0.00,,Overcast,100,2013-04-02 17:53:00
1:53 PM,69.1,64.0,84,30.01,10.0,East,9.2,-,N/A,,Overcast,80,2013-04-02 18:53:00
2:53 PM,71.1,64.0,78,29.98,10.0,East,13.8,17.3,N/A,,Overcast,80,2013-04-02 19:53:00
3:53 PM,70.0,64.0,81,29.95,10.0,ESE,11.5,-,N/A,,Overcast,110,2013-04-02 20:53:00
4:53 PM,70.0,64.0,81,29.92,10.0,East,11.5,-,N/A,,Overcast,80,2013-04-02 21:53:00
5:53 PM,70.0,63.0,78,29.90,10.0,East,13.8,21.9,N/A,,Overcast,90,2013-04-02 22:53:00
6:30 PM,69.8,62.6,78,29.88,10.0,East,16.1,20.7,N/A,,Overcast,100,2013-04-02 23:30:00
6:53 PM,69.1,63.0,81,29.89,10.0,East,13.8,20.7,N/A,,Overcast,90,2013-04-02 23:53:00
7:37 PM,68.0,62.6,83,29.87,8.0,East,10.4,21.9,0.00,Rain,Light Rain,90,2013-04-03 00:37:00
7:53 PM,68.0,64.0,87,29.88,5.0,East,10.4,-,0.00,Rain,Light Rain,90,2013-04-03 00:53:00
8:39 PM,66.2,64.4,94,29.87,8.0,East,13.8,21.9,0.01,,Overcast,90,2013-04-03 01:39:00
8:48 PM,66.2,64.4,94,29.86,7.0,East,12.7,23.0,0.01,Rain-Thunderstorm,Light Thunderstorms and Rain,100,2013-04-03 01:48:00
8:53 PM,66.9,64.9,93,29.87,7.0,East,13.8,-,0.01,Rain-Thunderstorm,Light Thunderstorms and Rain,100,2013-04-03 01:53:00
9:53 PM,68.0,64.9,90,29.86,6.0,East,12.7,21.9,0.01,Rain-Thunderstorm,Light Thunderstorms and Rain,100,2013-04-03 02:53:00
10:46 PM,64.4,62.6,94,29.95,0.8,WNW,23.0,41.4,0.22,Rain-Thunderstorm,Heavy Thunderstorms and Rain,300,2013-04-03 03:46:00
10:53 PM,64.0,61.0,90,29.90,0.5,NNW,21.9,34.5,0.64,Fog-Rain-Thunderstorm,Heavy Thunderstorms and Rain,330,2013-04-03 03:53:00
11:08 PM,62.6,60.8,94,29.92,2.5,NW,15.0,-,0.60,Rain-Thunderstorm,Heavy Thunderstorms and Rain,320,2013-04-03 04:08:00
11:53 PM,64.9,62.1,90,29.90,10.0,NNE,10.4,-,0.89,Rain,Light Rain,30,2013-04-03 04:53:00